Weather Roundup
Issued by NWS

Home | Current Version | Previous Version | Text Only | Print | Product List | Glossary On
Versions: 1 2 3 4 5 6 7 8 9 10 11 12 13 14 15 16 17 18 19 20 21 22 23 24 25 26 27 28 29 30 31 32 33 34 35 36 37 38 39 40 41 42 43 44 45 46 47 48 49 50
439
NZUS93 KARX 241010
HRRWXR

CURRENT HOURLY OBSERVATIONS ACROSS
MUCH OF THE UPPER MISSISSIPPI VALLEY
NATIONAL WEATHER SERVICE LA CROSSE WI
400 AM CST FRI FEB 24 2017


...SOUTHEAST MINNESOTA...


CITY           SKY/WX    TMP DP  RH WIND       PRES   REMARKS
ROCHESTER      FOG       27  26  96 N24G33    29.72F VSB 1/4 WCI  12
ROCHESTER/MAYO CLOUDY    28  28 100 N9G17     29.75F WCI  19
WINONA         LGT SNOW  32  30  93 NW6       29.80R VSB 1   WCI  26
AUSTIN           N/A     27  27 100 N16G24    29.70F WCI  14
ALBERT LEA     HVY SNOW  27  27 100 N25G33    29.66F VSB 1/4 WCI  11
DODGE CENTER   CLOUDY    27  27 100 N21       29.73F WCI  13
PRESTON          N/A     28  27  95 N17G24    29.69F WCI  16
OWATONNA       CLOUDY    27  25  93 N18       29.76F WCI  13
FARIBAULT      LGT SNOW  27  25  93 N15       29.80F VSB 1   WCI  15
$$

...ELSEWHERE IN MINNESOTA...


CITY           SKY/WX    TMP DP  RH WIND       PRES   REMARKS
MINNEAPOLIS    CLOUDY    27  16  63 NE15      29.87R WCI  15
INTNL FALLS    CLOUDY    11   3  70 N7        30.04F WCI   0
DULUTH         CLOUDY    19  13  77 N13       29.92F WCI   6
RED WING       SNOW      28  27  93 N6        29.84R VSB 1/2 WCI  22
REDWOOD FALLS  CLOUDY    26  15  63 N14G28    29.87F WCI  14
MANKATO        NOT AVBL
WORTHINGTON    LGT SNOW  24  21  88 N25G32    29.75S FOG     WCI   8
FAIRMONT       LGT SNOW  25  24  96 N18G30    29.73F VSB 1   WCI  11
$$

...SOUTHWEST WISCONSIN...


CITY           SKY/WX    TMP DP  RH WIND       PRES   REMARKS
LA CROSSE      LGT SNOW  33  31  92 N9        29.74R VSB 3/4 WCI  25
PRAIRIE DU CHI MIX PCPN  32  32  99 N9        29.64R WCI  24
BOSCOBEL       FRZ RAIN  34  30  85 NE10G22   29.63R FOG     WCI  26
LONE ROCK      CLOUDY    33  29  85 E17G24    29.60F FOG     WCI  22
PLATTEVILLE    CLOUDY    33  33 100 NE22      29.53F WCI  21
FORT MC COY    CLOUDY    31  29  94 E5G17     29.71R WCI  26
CAMP DOUGLAS   MIX PCPN  30  28  93 E14G22    29.62F WCI  20
MAUSTON-NEW LI LGT SNOW  31  29  92 E10G20    29.60F WCI  22
VIROQUA        CLOUDY    31  29  92 N7G21     29.68R WCI  24
WIS DELLS      MIX PCPN  30  29  95 NE21G26   29.60F WCI  17
$$

...ELSEWHERE IN WISCONSIN...


CITY           SKY/WX    TMP DP  RH WIND       PRES   REMARKS
MILWAUKEE      TSTM      37  33  85 NE24G35   29.60F WCI  26
MADISON        FRZ RAIN  33  30  88 NE21G28   29.59F FOG     WCI  21
GREEN BAY      LGT SNOW  30  30 100 NE31G38   29.76F VSB 3/4 WCI  15
EAU CLAIRE     SNOW      28  26  92 N8        29.77F VSB 1/2 WCI  20
BLACK RVR FLS  CLOUDY    31  31 100 NE9G20    29.64F VSB 3/4 WCI  23
MEDFORD        LGT SNOW  26  23  88 NE17      29.72F WCI  13
WAUSAU         CLOUDY    28  24  85 NE16G22   29.74R WCI  16
WIS RAPIDS     LGT SNOW  29  28  96 E13G24    29.68F VSB 3/4 WCI  19
MARSHFIELD     SNOW      28  25  88 NE16G25   29.66F VSB 1/2 WCI  16
RICE LAKE      CLOUDY    28  20  70 N16       29.84S WCI  17
$$

...NORTHEAST IOWA...


CITY           SKY/WX    TMP DP  RH WIND       PRES   REMARKS
WATERLOO       CLOUDY    33  31  92 N16G25    29.59S WCI  23
DUBUQUE        CLOUDY    33  33 100 NE25      29.52S FOG     WCI  20
DECORAH        LGT SNOW  32  32 100 N10       29.64S WCI  24
MASON CITY     LGT SNOW  28  32 100 N33G46    29.64F VSB 1   WCI  11
CHARLES CITY   HVY RAIN  32  32 100 N20G28    29.63F WCI  20
OELWEIN        CLOUDY    32  32 100 NE22G32   29.58F WCI  19
$$

...ELSEWHERE IN IOWA...


CITY           SKY/WX    TMP DP  RH WIND       PRES   REMARKS
DES MOINES     CLOUDY    36  33  89 NE21G29   29.51F WCI  25
IOWA CITY      CLOUDY    38  35  89 NE16G25   29.47F WCI  29
FORT DODGE     CLOUDY    28  25  86 N21G30    29.61R WCI  15
MARSHALLTOWN   CLOUDY    33  32  96 NE23      29.53F WCI  21
CEDAR RAPIDS   LGT RAIN  35  35 100 N17G24    29.49F FOG     WCI  25
$$

...NORTHERN ILLINOIS...


CITY           SKY/WX    TMP DP  RH WIND       PRES   REMARKS
CHICAGO-OHARE  CLOUDY    40  38  93 NE12      29.53F WCI  33
CHICAGO-MIDWAY CLOUDY    41  39  93 NE8       29.52F FOG
MOLINE         CLOUDY    41  37  86 NE13      29.42F
ROCKFORD       LGT RAIN  38  35  89 NE18      29.56F WCI  28
PEORIA         CLOUDY    57  54  89 S14       29.42F
$$

NOTE: "FAIR" INDICATES FEW OR NO CLOUDS BELOW 12,000 FEET WITH NO
SIGNIFICANT WEATHER AND/OR OBSTRUCTIONS TO VISIBILITY. WIND
SPEEDS ARE IN MILES-PER-HOUR.




USA.gov is the U.S. government's official web portal to all federal, state and local government web resources and services.